SCP
0 0 0 -0 -0 -0 0 0 0 0 0 0 0 0 0 0 0 0 0 0 0 0 0 0 0 0 0 0 0 0 0 0 0 0 0 0 0 0 0 0 0 0 0 0
-0 -0 -0 -0 -0 0 0 0 0 0 -0 0 0 0 0 0 0 0 0 0 0 0 0 0 0 0 0 0 0 0 0 0 0 0 0 0 0 0 0 0 0 0 0 0
-0 0 -0 -0 0 0 0 0 0 0 0 0 0 0 0 0 0 0 0 0 0 0 0 0 0 0 0 0 0 0 0 0 0 0 0 0 0 0 0 0 0 0 0 0
0 -0 -0 0 0 0 0 0 0 0 0 0 0 0 0 0 0 0 0 0 0 0 0 0 0 0 0 0 0 0 0 0 0 0 0 0 0 0 0 0 0 0 0 0
0 0 0 0 0 0 0 0 0 0 0 0 0 0 0 0 0 0 0 0 0 0 0 0 0 0 0 0 0 0 0 0 0 0 0 0 0 0 0 0 0 0 0 0
0 0 0 0 0 0 0 0 0 0 0 0 0 0 0 0 0 0 0 0 0 0 0 0 0 0 0 0 0 0 0 0 0 0 0 0 0 0 0 0 0 0 0 0
0 0 0 0 0 0 0 0 0 0 0 0 0 0 0 0 0 0 0 0 0 0 0 0 0 0 0 0 0 0 0 0 0 0 0 0 0 0 0 0 0 0 0 0
0 0 0 0 0 0 0 0 0 0 0 0 0 0 0 0 0 0 0 0 0 0 0 0 0 0 0 0 0 0 0 0 0 0 0 0 0 0 0 0 0 0 0 0
0 0 0 0 0 0 0 0 0 0 0 0 0 0 0 0 0 0 0 0 0 0 0 0 0 0 0 0 0 0 0 0 0 0 0 0 0 0 0 0 0 0 0 0
0 0 0 0 0 0 0 0 0 0 0 0 0 0 0 0 0 0 0 0 0 0 0 0 0 0 0 0 0 0 0 0 0 0 0 0 0 0 0 0 0 0 0 0
0 0 0 0 0 0 0 0 0 0 0 0 0 0 0 0 0 0 0 0 0 0 0 0 0 0 0 0 0 0 0 0 0 0 0 0 0 0 0 0 0 0 0 0
0 0 0 0 0 0 0 0 0 0 0 0 0 0 0 0 0 0 0 0 0 0 0 0 0 0 0 0 0 0 0 0 0 0 0 0 0 0 0 0 0 0 0 0
0 0 0 0 0 0 0 0 0 0 0 0 0 0 0 0 0 0 0 -0 0 0 0 0 0 0 0 0 0 0 0 0 0 0 0 0 0 0 0 0 0 0 0 0
0 0 0 0 0 0 0 0 0 0 0 0 0 0 0 0 0 0 -0 -0 0 0 0 0 0 0 0 0 0 0 0 0 0 0 0 0 0 0 0 0 0 0 0 0
0 0 0 0 0 0 0 0 0 0 0 0 0 0 0 0 0 0 0 0 0 0 0 0 0 0 0 0 0 0 0 0 0 0 0 0 0 0 0 0 0 0 0 0
0 0 0 0 0 0 0 0 0 0 0 0 0 0 0 0 0 0 0 0 0 0 0 0 0 0 0 0 0 0 0 0 0 0 0 0 0 0 0 0 0 0 0 0
0 0 0 0 0 0 0 0 0 0 0 0 0 0 0 0 0 0 0 0 0 0 0 0 0 0 0 0 0 0 0 0 0 0 0 0 0 0 0 0 0 0 0 0
0 0 0 0 0 0 0 0 0 0 0 0 0 0 0 0 0 0 0 0 0 0 0 0 0 0 0 0 0 0 0 0 0 0 0 0 0 0 0 0 0 0 0 0
0 0 0 0 0 0 0 0 0 0 0 0 0 0 0 0 0 0 0 0 0 0 0 0 0 0 0 0 0 0 0 0 0 0 0 0 0 0 0 0 0 0 0 0
0 0 0 0 0 0 0 0 0 0 0 0 0 0 0 0 0 0 0 0 0 0 0 0 0 0 0 0 0 0 0 0 0 0 0 0 0 0 0 0 0 0 0 0
0 0 0 0 0 0 0 0 0 0 0 0 0 0 0 0 0 0 0 0 0 0 0 0 0 0 0 0 0 0 0 0 0 0 0 0 0 0 0 0 0 0 0 0
0 0 0 0 0 0 0 0 0 0 0 0 0 0 0 0 0 0 0 0 0 0 0 0 0 0 0 0 0 0 0 0 0 0 0 0 0 0 0 0 0 0 0 0
0 0 0 0 0 0 0 0 0 0 0 0 0 0 0 0 0 0 0 0 0 0 0 0 0 0 0 0 0 0 0 0 0 0 0 0 0 0 0 0 0 0 0 0
0 0 0 0 0 0 0 0 0 0 0 0 0 0 0 0 0 0 0 0 0 0 0 0 0 0 0 0 0 0 0 0 0 0 0 0 0 0 0 0 0 0 0 0
0 0 0 0 0 0 0 0 0 0 0 0 0 0 0 0 0 0 0 0 0 0 0 0 0 0 0 0 0 0 0 0 0 0 0 0 0 0 0 0 0 0 0 0
0 0 0 0 0 0 0 0 0 0 0 0 0 0 0 0 0 0 0 0 0 -0 0 0 0 0 0 0 0 0 0 0 0 0 0 0 0 0 0 0 0 0 -0 0
0 0 0 0 0 0 0 0 0 0 0 0 0 0 0 0 0 0 0 0 0 0 0 0 0 0 0 0 0 0 0 0 0 0 0 0 0 0 0 0 0 0 0 0
Wind_Speed_500mb
8 14 12 12 14 18 24 26 12 8 10 10 12 12 23 29 35 38 35 31 41 59 54 49 43 38 30 33 40 40 38 41 46 48 51 52 55 60 63 65 69 68 63 58
9 15 11 17 20 26 30 33 32 28 31 13 20 21 23 29 37 36 32 41 56 55 50 52 52 48 48 42 42 46 50 52 53 55 57 58 57 57 62 67 70 72 70 65
8 5 12 17 31 29 18 14 17 25 13 11 11 17 27 43 34 29 43 52 48 48 48 52 51 48 47 46 45 49 51 52 57 61 63 63 59 58 61 67 70 75 74 71
7 8 5 11 6 6 16 4 15 9 0 10 11 21 26 24 31 33 39 44 46 48 51 49 46 46 46 46 48 50 54 55 55 57 59 57 57 59 62 65 70 73 73 74
4 6 16 7 2 2 6 6 5 8 12 14 19 23 10 33 28 27 31 35 40 43 46 47 46 47 49 51 51 52 53 55 56 57 59 58 59 60 61 66 71 74 74 73
4 3 9 3 6 4 7 5 8 16 5 7 13 4 2 27 24 28 29 34 43 48 50 51 51 54 58 61 62 62 62 62 62 60 59 62 62 62 63 67 69 69 73 71
9 6 14 8 14 6 4 9 13 4 5 8 5 7 23 21 23 26 30 37 44 49 55 58 60 63 66 67 65 66 66 66 68 68 66 62 60 60 61 62 63 66 68 68
9 10 17 15 8 10 12 20 14 10 8 6 7 9 16 24 28 32 37 42 48 54 58 63 68 69 73 76 75 73 73 74 71 71 69 67 63 59 55 56 59 62 62 67
15 10 10 26 7 16 13 12 8 7 2 4 8 14 19 24 30 36 43 51 56 60 66 68 74 77 84 91 93 90 84 81 79 75 73 67 63 57 56 56 57 60 62 66
4 5 25 27 22 16 11 11 9 6 4 2 7 11 19 28 37 43 49 55 60 67 74 80 84 80 81 85 94 92 91 90 84 77 76 72 66 59 55 57 61 58 62 65
10 11 11 14 27 19 15 12 8 5 1 4 12 18 24 34 44 51 59 70 77 82 86 91 92 91 88 86 89 94 93 90 88 86 76 74 69 62 57 55 56 56 59 55
9 5 7 20 29 20 16 11 5 1 6 12 19 28 35 46 52 58 65 76 82 84 86 92 94 94 92 90 88 89 87 82 89 88 83 75 71 70 62 57 53 52 52 54
1 14 13 26 21 17 17 10 3 7 14 21 29 36 44 50 57 62 70 76 79 81 82 87 92 92 90 88 82 79 81 88 85 84 87 82 73 70 71 62 57 52 58 61
16 15 17 24 16 23 15 6 5 11 17 26 34 41 47 53 60 65 72 76 80 86 93 98 96 93 92 87 85 85 80 84 83 82 84 81 70 67 68 69 67 61 60 65
21 20 13 28 28 18 9 6 12 21 27 34 40 46 51 59 67 73 78 83 90 93 97 91 91 99 90 84 82 80 81 80 79 77 74 75 73 64 65 68 70 68 63 62
23 24 29 29 22 15 10 13 22 29 34 43 49 53 59 67 74 79 82 84 89 96 98 98 99 94 88 81 80 82 84 86 86 81 78 73 70 67 65 68 72 69 68 63
40 30 23 16 11 10 18 24 29 36 42 49 54 58 65 71 76 80 85 83 87 98 96 97 96 86 80 79 80 84 87 81 73 69 73 73 68 68 66 68 74 70 67 59
29 22 13 7 11 19 29 35 42 48 53 56 59 62 69 73 78 82 87 84 90 100 96 88 79 76 75 75 76 76 76 75 70 68 66 66 67 66 65 67 70 67 62 57
18 6 5 13 22 31 41 49 55 59 62 65 67 69 72 74 77 82 86 85 92 97 97 81 75 71 73 73 70 70 69 68 67 66 65 63 62 62 65 66 68 67 63 55
4 10 17 24 35 45 54 59 63 67 69 71 70 73 77 76 78 84 87 90 94 91 83 76 70 70 74 74 68 66 68 68 68 69 68 64 60 58 60 62 65 67 63 59
24 33 36 46 60 64 61 64 65 70 74 76 73 78 78 77 80 83 88 91 98 83 74 78 72 76 78 79 74 79 77 73 71 70 70 68 62 59 55 56 58 61 63 57
48 49 59 76 81 80 72 69 71 77 79 80 81 78 73 77 79 83 85 89 87 77 79 80 87 87 87 78 75 77 74 70 70 69 70 68 63 60 56 52 53 59 59 55
68 66 82 84 78 78 78 80 78 85 84 83 77 72 70 73 74 83 85 87 80 78 79 88 89 87 81 77 79 77 73 69 69 66 66 65 61 57 54 50 47 53 52 48
67 72 74 75 75 80 83 81 78 79 73 72 72 65 65 69 77 82 77 80 83 80 81 84 83 81 79 83 80 70 69 71 71 66 66 60 55 52 50 46 44 49 47 44
69 74 77 80 82 86 85 80 78 79 75 74 68 63 64 65 67 82 82 80 77 76 82 83 86 83 84 76 75 77 76 74 68 64 64 59 53 50 46 43 42 42 41 40
70 75 81 84 86 86 83 80 75 71 68 67 61 63 66 71 75 78 78 75 72 77 82 87 85 78 71 74 82 81 77 68 64 65 57 51 45 42 39 38 35 33 36 35
78 81 75 78 81 77 75 75 75 81 76 70 68 69 73 77 78 79 74 70 75 79 81 77 74 70 63 89 78 71 60 57 59 52 45 42 36 34 32 30 29 27 30 32
Wind_Direction_500mb
277 275 262 231 247 205 208 220 196 201 252 335 5 27 16 357 346 341 334 346 340 336 340 339 335 328 331 330 315 311 300 296 304 304 302 297 289 285 281 276 272 270 266 266
294 250 244 260 247 237 235 227 243 264 284 306 49 29 354 333 338 336 352 339 330 333 334 332 331 324 316 314 311 307 303 302 304 304 303 300 296 289 280 277 274 271 266 263
275 22 305 283 246 225 230 232 216 238 259 71 25 4 333 327 334 360 339 334 339 340 336 333 333 334 331 330 323 317 317 311 308 306 303 300 298 293 286 280 277 275 269 263
258 319 255 236 101 298 209 174 203 247 304 74 12 336 341 29 2 357 350 346 346 345 345 347 346 343 336 334 329 323 320 318 316 315 310 305 299 293 291 285 280 277 273 264
171 249 284 185 213 28 120 193 19 221 85 16 338 319 117 9 12 2 354 355 355 358 357 356 353 350 349 349 345 340 332 325 320 315 311 307 300 296 293 287 282 278 275 266
160 228 256 101 122 24 1 204 96 65 34 329 340 326 217 344 355 353 352 356 357 358 0 359 355 348 345 344 343 340 336 333 330 323 312 303 298 295 293 288 284 279 273 270
242 279 288 120 146 146 148 198 138 181 262 276 236 254 300 329 340 346 351 358 358 358 356 357 354 348 343 340 338 334 331 327 328 327 322 312 304 297 293 287 282 275 270 267
189 207 254 151 128 191 152 146 174 205 226 234 273 303 324 331 341 349 352 353 351 348 347 347 344 338 336 335 334 331 326 322 321 321 321 318 311 303 294 286 279 273 269 263
188 217 137 180 153 142 156 170 186 182 222 310 323 332 328 338 346 345 344 342 341 340 338 338 336 333 327 327 325 321 318 318 317 315 314 312 308 303 293 285 279 273 267 261
39 245 179 177 173 177 172 176 169 183 198 245 300 320 333 336 337 336 336 335 336 334 333 331 331 325 320 319 315 315 313 311 310 311 308 305 304 301 292 282 277 272 266 262
250 260 150 183 188 185 176 185 180 166 101 352 331 329 326 325 332 334 335 336 335 332 330 327 325 320 318 316 315 315 316 314 312 310 307 303 298 295 290 284 276 272 267 262
234 151 151 170 185 188 185 177 161 74 334 326 328 331 331 333 335 332 329 330 328 326 322 319 316 315 315 316 313 311 311 310 309 307 308 303 299 295 288 285 277 269 261 255
262 150 142 163 181 177 167 163 187 319 319 324 334 332 333 325 327 325 325 325 322 317 315 314 314 314 316 316 311 307 303 304 307 303 301 301 298 292 286 279 273 267 258 257
215 187 130 172 177 163 168 184 279 316 330 334 332 330 324 320 323 322 321 322 322 321 318 317 316 313 314 312 309 308 306 305 304 301 298 299 295 291 285 276 271 267 262 256
208 207 229 175 163 171 201 281 313 326 333 329 326 322 324 322 319 320 322 324 324 322 320 317 313 316 320 319 317 314 313 312 310 306 300 297 294 286 280 274 270 269 268 264
194 181 168 168 180 210 257 307 311 320 323 323 322 322 322 322 320 319 321 324 326 322 320 320 319 322 322 322 320 317 313 310 307 303 302 296 291 285 278 274 270 266 266 272
169 172 176 186 219 270 299 307 309 312 312 314 316 316 317 317 316 318 320 319 322 319 319 318 318 320 320 317 312 309 313 313 311 302 298 297 289 285 281 275 271 270 269 273
190 186 192 247 296 310 315 315 312 308 306 308 308 310 313 312 311 313 319 318 317 316 317 321 319 317 314 312 314 315 315 313 312 308 303 298 292 285 282 276 274 272 271 267
172 197 296 322 326 323 319 313 305 302 301 304 307 307 306 306 311 314 316 311 312 316 324 320 318 317 316 319 319 319 316 314 315 314 310 302 296 285 276 273 272 273 272 267
78 358 334 329 327 320 314 310 306 298 300 301 303 303 304 308 311 313 313 311 312 315 325 322 320 319 323 324 324 321 317 315 315 317 316 311 301 293 284 275 272 272 271 268
334 333 329 321 318 315 310 306 301 296 299 297 302 304 304 307 309 312 310 310 318 319 321 320 321 321 324 321 320 318 315 312 312 312 312 312 306 298 289 278 271 269 270 268
307 318 317 315 311 308 308 310 308 301 298 301 305 303 303 305 311 312 312 309 318 317 315 316 317 318 318 319 316 312 309 307 306 303 305 306 305 300 293 283 272 267 267 265
285 292 299 301 303 307 307 302 302 304 304 304 305 302 302 306 311 311 313 321 317 312 310 312 314 317 319 318 314 310 307 308 308 305 304 303 299 297 294 283 274 266 266 263
280 289 295 301 305 306 304 304 306 304 303 304 302 297 302 312 316 317 314 313 315 314 310 311 315 318 317 314 311 309 310 309 307 304 307 304 295 295 291 282 269 263 265 262
293 296 297 298 299 299 302 304 306 305 305 302 298 299 307 314 311 318 317 316 317 313 313 315 318 319 317 315 315 315 312 308 304 304 303 301 293 288 287 279 270 268 262 256
293 292 294 295 293 296 297 300 297 299 298 300 300 302 309 312 315 318 319 320 314 314 316 319 321 321 320 320 316 311 306 303 303 301 299 296 289 281 279 276 271 262 256 251
290 292 290 292 294 294 294 294 292 294 298 298 299 305 310 313 317 321 319 318 317 319 320 322 324 325 316 312 314 311 310 302 301 301 297 292 284 278 276 269 265 254 247 246
Wind_Speed_850mb
8 14 12 12 14 18 24 26 12 8 10 10 12 12 23 29 35 38 35 31 41 59 54 49 43 38 30 33 40 40 38 41 46 48 51 52 55 60 63 65 69 68 63 58
9 15 11 17 20 26 30 33 32 28 31 13 20 21 23 29 37 36 32 41 56 55 50 52 52 48 48 42 42 46 50 52 53 55 57 58 57 57 62 67 70 72 70 65
8 5 12 17 31 29 18 14 17 25 13 11 11 17 27 43 34 29 43 52 48 48 48 52 51 48 47 46 45 49 51 52 57 61 63 63 59 58 61 67 70 75 74 71
7 8 5 11 6 6 16 4 15 9 0 10 11 21 26 24 31 33 39 44 46 48 51 49 46 46 46 46 48 50 54 55 55 57 59 57 57 59 62 65 70 73 73 74
4 6 16 7 2 2 6 6 5 8 12 14 19 23 10 33 28 27 31 35 40 43 46 47 46 47 49 51 51 52 53 55 56 57 59 58 59 60 61 66 71 74 74 73
4 3 9 3 6 4 7 5 8 16 5 7 13 4 2 27 24 28 29 34 43 48 50 51 51 54 58 61 62 62 62 62 62 60 59 62 62 62 63 67 69 69 73 71
9 6 14 8 14 6 4 9 13 4 5 8 5 7 23 21 23 26 30 37 44 49 55 58 60 63 66 67 65 66 66 66 68 68 66 62 60 60 61 62 63 66 68 68
9 10 17 15 8 10 12 20 14 10 8 6 7 9 16 24 28 32 37 42 48 54 58 63 68 69 73 76 75 73 73 74 71 71 69 67 63 59 55 56 59 62 62 67
15 10 10 26 7 16 13 12 8 7 2 4 8 14 19 24 30 36 43 51 56 60 66 68 74 77 84 91 93 90 84 81 79 75 73 67 63 57 56 56 57 60 62 66
4 5 25 27 22 16 11 11 9 6 4 2 7 11 19 28 37 43 49 55 60 67 74 80 84 80 81 85 94 92 91 90 84 77 76 72 66 59 55 57 61 58 62 65
10 11 11 14 27 19 15 12 8 5 1 4 12 18 24 34 44 51 59 70 77 82 86 91 92 91 88 86 89 94 93 90 88 86 76 74 69 62 57 55 56 56 59 55
9 5 7 20 29 20 16 11 5 1 6 12 19 28 35 46 52 58 65 76 82 84 86 92 94 94 92 90 88 89 87 82 89 88 83 75 71 70 62 57 53 52 52 54
1 14 13 26 21 17 17 10 3 7 14 21 29 36 44 50 57 62 70 76 79 81 82 87 92 92 90 88 82 79 81 88 85 84 87 82 73 70 71 62 57 52 58 61
16 15 17 24 16 23 15 6 5 11 17 26 34 41 47 53 60 65 72 76 80 86 93 98 96 93 92 87 85 85 80 84 83 82 84 81 70 67 68 69 67 61 60 65
21 20 13 28 28 18 9 6 12 21 27 34 40 46 51 59 67 73 78 83 90 93 97 91 91 99 90 84 82 80 81 80 79 77 74 75 73 64 65 68 70 68 63 62
23 24 29 29 22 15 10 13 22 29 34 43 49 53 59 67 74 79 82 84 89 96 98 98 99 94 88 81 80 82 84 86 86 81 78 73 70 67 65 68 72 69 68 63
40 30 23 16 11 10 18 24 29 36 42 49 54 58 65 71 76 80 85 83 87 98 96 97 96 86 80 79 80 84 87 81 73 69 73 73 68 68 66 68 74 70 67 59
29 22 13 7 11 19 29 35 42 48 53 56 59 62 69 73 78 82 87 84 90 100 96 88 79 76 75 75 76 76 76 75 70 68 66 66 67 66 65 67 70 67 62 57
18 6 5 13 22 31 41 49 55 59 62 65 67 69 72 74 77 82 86 85 92 97 97 81 75 71 73 73 70 70 69 68 67 66 65 63 62 62 65 66 68 67 63 55
4 10 17 24 35 45 54 59 63 67 69 71 70 73 77 76 78 84 87 90 94 91 83 76 70 70 74 74 68 66 68 68 68 69 68 64 60 58 60 62 65 67 63 59
24 33 36 46 60 64 61 64 65 70 74 76 73 78 78 77 80 83 88 91 98 83 74 78 72 76 78 79 74 79 77 73 71 70 70 68 62 59 55 56 58 61 63 57
48 49 59 76 81 80 72 69 71 77 79 80 81 78 73 77 79 83 85 89 87 77 79 80 87 87 87 78 75 77 74 70 70 69 70 68 63 60 56 52 53 59 59 55
68 66 82 84 78 78 78 80 78 85 84 83 77 72 70 73 74 83 85 87 80 78 79 88 89 87 81 77 79 77 73 69 69 66 66 65 61 57 54 50 47 53 52 48
67 72 74 75 75 80 83 81 78 79 73 72 72 65 65 69 77 82 77 80 83 80 81 84 83 81 79 83 80 70 69 71 71 66 66 60 55 52 50 46 44 49 47 44
69 74 77 80 82 86 85 80 78 79 75 74 68 63 64 65 67 82 82 80 77 76 82 83 86 83 84 76 75 77 76 74 68 64 64 59 53 50 46 43 42 42 41 40
70 75 81 84 86 86 83 80 75 71 68 67 61 63 66 71 75 78 78 75 72 77 82 87 85 78 71 74 82 81 77 68 64 65 57 51 45 42 39 38 35 33 36 35
78 81 75 78 81 77 75 75 75 81 76 70 68 69 73 77 78 79 74 70 75 79 81 77 74 70 63 89 78 71 60 57 59 52 45 42 36 34 32 30 29 27 30 32
Wind_Direction_850mb
277 275 262 231 247 205 208 220 196 201 252 335 5 27 16 357 346 341 334 346 340 336 340 339 335 328 331 330 315 311 300 296 304 304 302 297 289 285 281 276 272 270 266 266
294 250 244 260 247 237 235 227 243 264 284 306 49 29 354 333 338 336 352 339 330 333 334 332 331 324 316 314 311 307 303 302 304 304 303 300 296 289 280 277 274 271 266 263
275 22 305 283 246 225 230 232 216 238 259 71 25 4 333 327 334 360 339 334 339 340 336 333 333 334 331 330 323 317 317 311 308 306 303 300 298 293 286 280 277 275 269 263
258 319 255 236 101 298 209 174 203 247 304 74 12 336 341 29 2 357 350 346 346 345 345 347 346 343 336 334 329 323 320 318 316 315 310 305 299 293 291 285 280 277 273 264
171 249 284 185 213 28 120 193 19 221 85 16 338 319 117 9 12 2 354 355 355 358 357 356 353 350 349 349 345 340 332 325 320 315 311 307 300 296 293 287 282 278 275 266
160 228 256 101 122 24 1 204 96 65 34 329 340 326 217 344 355 353 352 356 357 358 0 359 355 348 345 344 343 340 336 333 330 323 312 303 298 295 293 288 284 279 273 270
242 279 288 120 146 146 148 198 138 181 262 276 236 254 300 329 340 346 351 358 358 358 356 357 354 348 343 340 338 334 331 327 328 327 322 312 304 297 293 287 282 275 270 267
189 207 254 151 128 191 152 146 174 205 226 234 273 303 324 331 341 349 352 353 351 348 347 347 344 338 336 335 334 331 326 322 321 321 321 318 311 303 294 286 279 273 269 263
188 217 137 180 153 142 156 170 186 182 222 310 323 332 328 338 346 345 344 342 341 340 338 338 336 333 327 327 325 321 318 318 317 315 314 312 308 303 293 285 279 273 267 261
39 245 179 177 173 177 172 176 169 183 198 245 300 320 333 336 337 336 336 335 336 334 333 331 331 325 320 319 315 315 313 311 310 311 308 305 304 301 292 282 277 272 266 262
250 260 150 183 188 185 176 185 180 166 101 352 331 329 326 325 332 334 335 336 335 332 330 327 325 320 318 316 315 315 316 314 312 310 307 303 298 295 290 284 276 272 267 262
234 151 151 170 185 188 185 177 161 74 334 326 328 331 331 333 335 332 329 330 328 326 322 319 316 315 315 316 313 311 311 310 309 307 308 303 299 295 288 285 277 269 261 255
262 150 142 163 181 177 167 163 187 319 319 324 334 332 333 325 327 325 325 325 322 317 315 314 314 314 316 316 311 307 303 304 307 303 301 301 298 292 286 279 273 267 258 257
215 187 130 172 177 163 168 184 279 316 330 334 332 330 324 320 323 322 321 322 322 321 318 317 316 313 314 312 309 308 306 305 304 301 298 299 295 291 285 276 271 267 262 256
208 207 229 175 163 171 201 281 313 326 333 329 326 322 324 322 319 320 322 324 324 322 320 317 313 316 320 319 317 314 313 312 310 306 300 297 294 286 280 274 270 269 268 264
194 181 168 168 180 210 257 307 311 320 323 323 322 322 322 322 320 319 321 324 326 322 320 320 319 322 322 322 320 317 313 310 307 303 302 296 291 285 278 274 270 266 266 272
169 172 176 186 219 270 299 307 309 312 312 314 316 316 317 317 316 318 320 319 322 319 319 318 318 320 320 317 312 309 313 313 311 302 298 297 289 285 281 275 271 270 269 273
190 186 192 247 296 310 315 315 312 308 306 308 308 310 313 312 311 313 319 318 317 316 317 321 319 317 314 312 314 315 315 313 312 308 303 298 292 285 282 276 274 272 271 267
172 197 296 322 326 323 319 313 305 302 301 304 307 307 306 306 311 314 316 311 312 316 324 320 318 317 316 319 319 319 316 314 315 314 310 302 296 285 276 273 272 273 272 267
78 358 334 329 327 320 314 310 306 298 300 301 303 303 304 308 311 313 313 311 312 315 325 322 320 319 323 324 324 321 317 315 315 317 316 311 301 293 284 275 272 272 271 268
334 333 329 321 318 315 310 306 301 296 299 297 302 304 304 307 309 312 310 310 318 319 321 320 321 321 324 321 320 318 315 312 312 312 312 312 306 298 289 278 271 269 270 268
307 318 317 315 311 308 308 310 308 301 298 301 305 303 303 305 311 312 312 309 318 317 315 316 317 318 318 319 316 312 309 307 306 303 305 306 305 300 293 283 272 267 267 265
285 292 299 301 303 307 307 302 302 304 304 304 305 302 302 306 311 311 313 321 317 312 310 312 314 317 319 318 314 310 307 308 308 305 304 303 299 297 294 283 274 266 266 263
280 289 295 301 305 306 304 304 306 304 303 304 302 297 302 312 316 317 314 313 315 314 310 311 315 318 317 314 311 309 310 309 307 304 307 304 295 295 291 282 269 263 265 262
293 296 297 298 299 299 302 304 306 305 305 302 298 299 307 314 311 318 317 316 317 313 313 315 318 319 317 315 315 315 312 308 304 304 303 301 293 288 287 279 270 268 262 256
293 292 294 295 293 296 297 300 297 299 298 300 300 302 309 312 315 318 319 320 314 314 316 319 321 321 320 320 316 311 306 303 303 301 299 296 289 281 279 276 271 262 256 251
290 292 290 292 294 294 294 294 292 294 298 298 299 305 310 313 317 321 319 318 317 319 320 322 324 325 316 312 314 311 310 302 301 301 297 292 284 278 276 269 265 254 247 246